Other Public Products
Issued by NWS Grand Forks, ND

Home | Current Version | Previous Version | Text Only | Print | Product List | Glossary Off
Versions: 1 2 3 4 5 6 7 8 9 10 11 12 13 14 15 16 17 18 19 20 21 22 23 24 25 26 27 28 29 30 31 32 33 34 35 36 37 38 39 40 41 42 43 44 45 46 47 48 49 50

000
FPUS83 KFGF 251331
OPUFGF
PRAIRIE TO PINES WEATHER ROUNDUP
NATIONAL WEATHER SERVICE EASTERN NORTH DAKOTA/GRAND FORKS ND
700 AM CST THU DEC 25 2014

 **SATELLITE DATA USED TO AUGMENT SKY COVER AT AUTOMATED STATIONS**
 *****  WEATHER ACROSS EASTERN NORTH DAKOTA  *****

CITY           SKY/WX    TMP DP  RH WIND       PRES   REMARKS
GRAND FORKS    PTCLDY    25  21  86 W9        29.63R WCI  15
GRAND FORKS AF PTCLDY    25  25 100 NW8       29.62R WCI  16
GRAND CITY NWS   N/A     27 N/A N/A W9          N/A  WCI  17
BUXTON           N/A     25  24  96 W6          N/A  WCI  18
DEVILS LAKE    CLOUDY    19  16  86 NW10      29.63R WCI   8
FARGO          CLOUDY    27  23  85 NW9       29.62R WCI  18
WAHPETON ARPT  CLOUDY    28  27  93 NW7       29.62R WCI  21
$$

 *****  WEATHER ACROSS CENTRAL AND WESTERN NORTH DAKOTA  *****

CITY           SKY/WX    TMP DP  RH WIND       PRES   REMARKS
JAMESTOWN      CLOUDY    22  20  92 NW8       29.62R WCI  12
BISMARCK       MOCLDY    25  21  85 NW9       29.65R WCI  15
MINOT          CLOUDY    28  23  81 NW12      29.64R WCI  18
MINOT AFB      CLOUDY    27  27 100 N9        29.66R WCI  17
GARRISON         N/A     25  22  88 NW8       29.65R WCI  16
WILLISTON      CLOUDY    26  21  81 N16       29.74R WCI  14
DICKINSON      CLOUDY    25  21  85 NW8       29.64R WCI  16
HETTINGER      CLOUDY    26  22  84 N15       29.64R WCI  14
$$

 *****  OTHER OBSERVATIONS NORTHEAST NORTH DAKOTA  *****

CITY           SKY/WX    TMP DP  RH WIND       PRES   REMARKS
WALHALLA         N/A     27  27 100 NW12      29.61R WCI  16
LANGDON        CLOUDY    25  23  93 NW13      29.58R WCI  13
CAVALIER       CLOUDY    28  25  86 NW8       29.61R WCI  20
GRAFTON        NOT AVBL
CANDO          CLOUDY    21  19  93 NW8       29.64R WCI  12
FORT TOTTEN    NOT AVBL
ROLLA          CLOUDY    25  25 100 NW13      29.61R WCI  13
RUGBY          CLOUDY    23  23 100 NW12      29.64R WCI  12
 ***** THE ABOVE OBSERVATIONS ARE NON NWS ARE NOT QUALITY
        CONTROLLED AND MAY MIS-REPORT RAIN FOR SNOW...
$$

 *****  OTHER OBSERVATIONS SOUTHEAST NORTH DAKOTA *****

CITY           SKY/WX    TMP DP  RH WIND       PRES   REMARKS
COOPERSTOWN    NOT AVBL
VALLEY CITY    CLOUDY    21  21 100 N9        29.62R WCI  11
OAKES            N/A     27  27 100 NW5       29.63R WCI  21
GWINNER        SUNNY     30  28  93 CALM      29.63R
BUFFALO        NOT AVBL
WYNDMERE         N/A     28  27  93 NW8         N/A  WCI  20
 ***** THE ABOVE OBSERVATIONS ARE NON NWS ARE NOT QUALITY
       CONTROLLED AND MAY MIS-REPORT RAIN FOR SNOW...
$$

  *****  WEATHER ACROSS NORTHERN MINNESOTA  *****

CITY           SKY/WX    TMP DP  RH WIND       PRES   REMARKS
FLAG ISLAND    MIX PCPN  28  27  93 SW8       29.50R WCI  20
WARROAD        CLOUDY    28  25  86 W8        29.54R WCI  20
ROSEAU         CLOUDY    30  25  80 W8        29.54R WCI  23
HALLOCK        CLOUDY    30  27  86 NW10      29.59R WCI  21
THF RVR FALLS  CLOUDY    28  25  86 W7        29.58R WCI  21
HALSTAD          N/A     27  23  85 W6          N/A  WCI  20
FOSSTON        CLOUDY    25  25 100 W7        29.59R FOG     WCI  17
BAUDETTE       CLOUDY    29  25  85 VRB5      29.53R WCI  24
WASKISH        CLOUDY    30  28  93 CALM      29.54R
CROOKSTON      CLOUDY    28  27  93 W7        29.62R WCI  21
$$
  *****  WEATHER ACROSS CENTRAL AND WEST MINNESOTA  *****

CITY           SKY/WX    TMP DP  RH WIND       PRES   REMARKS
BEMIDJI        CLOUDY    28  27  95 W12G17    29.56R FOG     WCI  18
PARK RAPIDS    CLOUDY    30  28  92 W9        29.55R WCI  22
WADENA         CLOUDY    28  27  93 W8        29.58R WCI  20
DETROIT LAKES  CLOUDY    28  28 100 NW9       29.60R WCI  20
MOORHEAD       CLOUDY    27  27 100 N10       29.63R WCI  17
FERGUS FALLS   CLOUDY    28  28 100 W7        29.63R WCI  21
ELBOW LAKE     CLOUDY    28  27  98 SW5       29.60R WCI  22
MORRIS MN      MOCLDY    28  27  93 CALM      29.60R FOG
STAPLES        CLOUDY    28  27  93 SW5       29.59R WCI  23
WHEATON        CLOUDY    28  27  93 W5        29.64R WCI  23
$$
  *****  WEATHER ELSEWHERE ACROSS MINNESOTA  *****

CITY           SKY/WX    TMP DP  RH WIND       PRES   REMARKS
DULUTH         CLOUDY    31  27  85 W12       29.55R WCI  22
INTRNTL FALLS  CLOUDY    29  26  89 W6        29.50R WCI  23
ELY            CLOUDY    30  27  86 W8        29.52R WCI  23
CLOQUET        LGT SNOW  30  28  93 SW7       29.57R WCI  23
BRAINERD       CLOUDY    29  26  89 SW9       29.59R WCI  20
HIBBING        CLOUDY    31  26  82 W6        29.54R
ALEXANDRIA     CLOUDY    28  26  92 SW6       29.60R WCI  22
SAINT CLOUD    LGT SNOW  32  27  81 SW10      29.63R WCI  24
MINNEAPOLIS    CLOUDY    30  26  85 S8        29.67R WCI  22
$$

  *****  WEATHER ACROSS SOUTH DAKOTA  *****

CITY           SKY/WX    TMP DP  RH WIND       PRES   REMARKS
SIOUX FALLS    CLOUDY    28  25  88 SE3       29.58R
BROOKINGS      NOT AVBL
WATERTOWN      LGT SNOW  28  26  92 NW5       29.60R FOG     WCI  23
HURON          FRZ RAIN  28  25  88 N12       29.61R WCI  18
SISSETON         N/A     30  28  92 NW6       29.60R WCI  24
ABERDEEN       CLOUDY    30  26  85 NW3       29.63R
MITCHELL       CLOUDY    28  26  92 NE12      29.58R WCI  18
PIERRE         CLOUDY    33  30  88 NE14      29.59R WCI  23
MOBRIDGE       CLOUDY    32  26  78 N15       29.59R WCI  22
RAPID CITY     LGT SNOW  31  29  92 N15       29.59R FOG     WCI  20
$$

  *****  SOME WEATHER IN NEARBY STATES *****

CITY           SKY/WX    TMP DP  RH WIND       PRES   REMARKS
GLASGOW MT     CLOUDY    25  19  78 NW14      29.78R WCI  13
GREAT FALLS MT MIX PCPN  22  19  89 NW5       29.82R WCI  16
CHEYENNE WY    CLOUDY    28  20  71 NE3       29.40R
SCOTTSBLUFF NE CLOUDY    37  30  75 N8        29.43R
OMAHA NE       CLOUDY    32  27  81 SE13      29.65S WCI  22
DES MOINES IA  CLOUDY    32  27  81 S13       29.73S WCI  22
DAVENPORT IA   CLOUDY    33  27  78 SW12G22   29.85R WCI  24
CHICAGO IL     CLOUDY    34  28  79 SW15      29.85R WCI  24
EAU CLAIRE WI  CLOUDY    31  26  82 SW8       29.68R WCI  23
LA CROSSE WI   CLOUDY    32  26  78 S9        29.74R WCI  24
$$

  *****  SOME NATIONAL WEATHER *****

CITY           SKY/WX    TMP DP  RH WIND       PRES   REMARKS
LA GUARDIA NY  LGT RAIN  51  40  65 W16G23    29.65R
RALEIGH NC     CLOUDY    52  40  63 W5        29.95R
ATLANTA GA     PTCLDY    38  33  82 W3        30.13R
NEW ORLEANS LA PTCLDY    39  36  89 CALM      30.25R
OKLAHOMA CITY  PTCLDY    36  25  64 S14       29.80F
ALBUQUERQUE NM MOCLDY    33  11  39 SE9       29.72F
SALT LAKE CITY LGT SNOW  31  24  75 W15G24    29.58R WCI  20
LOS ANGELES CA PTCLDY    56  31  38 N17G29    29.80R
BOISE ID       MOCLDY    30  24  78 NW15      29.78R WCI  19
SEATTLE WA     CLOUDY    41  37  86 E5        30.13R
$$

*** WEATHER ACROSS MANITOBA...SASKATCHEWAN AND ONTARIO ***
                ***ONTARIO***

CITY           SKY/WX    TMP DP  RH WIND       PRES   REMARKS
GERALDTON      FLURRIES  23  21  93 W6        29.44R WCI  16
THUNDER BAY    MOCLDY    25  25 100 W3        29.52R
SIOUX LOOKOUT  FLURRIES  28  27  93 W3        29.45R
TORONTO        LGT RAIN  39  34  81 W18G30    29.59R
BIG TROUT LK   FLURRIES  19  18  93 NE2       29.50R
PICKLE LAKE    FLURRIES  23  19  86 E5        29.44S WCI  17
DRYDEN         FLURRIES  27  27 100 W10       29.46R WCI  17
KENORA         LGT SNOW  27  27 100 W6        29.47R WCI  20
$$
                *** MANITOBA***

CITY           SKY/WX    TMP DP  RH WIND       PRES   REMARKS
BRANDON        CLOUDY    25  21  86 NW9       29.62R WCI  15
DAUPHIN        CLOUDY    23  21  93 NW12      29.66R WCI  12
ISLAND LAKE    FLURRIES  18  16  93 N5        29.53R WCI  11
PILOT MOUND      N/A     25  23  93 NW13        N/A  WCI  13
THE PAS        FLURRIES  21  19  93 NW9       29.68R WCI  11
THOMPSON       FLURRIES  14  12  92 NW2       29.62R
WINNIPEG       FLURRIES  25  21  86 NW16G23   29.57R WCI  12
CHURCHILL      FLURRIES  16  14  93 E2        29.66S
GILLAM         LGT SNOW  14  12  92 N3        29.61R
$$
                ***SASKATCHEWAN***

CITY           SKY/WX    TMP DP  RH WIND       PRES   REMARKS
ESTEVAN        FLURRIES  23  19  86 NW21      29.68R WCI   8
KINDERSLEY     CRYSTALS   5   1  85 N12       29.87R WCI -11
LLOYDMINSTER   FLURRIES   9   5  85 NW13      29.89R WCI  -7
PRINCE ALBERT  MOCLDY     9   3  78 NW9G21    29.83R WCI  -5
REGINA         FLURRIES  21  19  93 NW18      29.74R WCI   6
YORKTON        FLURRIES  21  19  93 N12       29.68R WCI   9
N. BATTLEFORD  PTCLDY     0  -4  85 NW17G23   29.91R WCI -21


USA.gov is the U.S. government's official web portal to all federal, state and local government web resources and services.